Overview Statistics Trail Chart Weather Telemetry Raw packets
 

This is the latest recevied weather packets stored in our database for station/object KC0RKM-13. If no packets are shown the sender has not sent any weather packets the latest 10 day(s).

<< 34 35 36 37 38 39 40 >>
Time Temp. Humidity Pressure Rain* Wind** Luminosity Snow
1788027004 33.89° C 39% 1013.5 hPa 0 mm - - -
1788026404 33.89° C 39% 1013.9 hPa 0 mm - - -
1788025803 33.33° C 41% 1014.1 hPa 0 mm - - -
1788025203 33.33° C 43% 1014.1 hPa 0 mm - - -
1788024603 32.78° C 44% 1014.3 hPa 0 mm - - -
1788024004 32.22° C 44% 1014.4 hPa 0 mm - - -
1788023403 32.22° C 44% 1014.8 hPa 0 mm - - -
1788022803 31.67° C 45% 1014.9 hPa 0 mm - - -
1788022203 31.11° C 47% 1014.9 hPa 0 mm - - -
1788021604 31.11° C 48% 1015.1 hPa 0 mm - - -
1788021004 30.56° C 50% 1015.4 hPa 0 mm - - -
1788020403 29.44° C 52% 1015.5 hPa 0 mm - - -
1788019803 28.89° C 54% 1015.8 hPa 0 mm - - -
1788019204 28.89° C 53% 1015.9 hPa 0 mm - - -
1788018603 28.89° C 54% 1015.7 hPa 0 mm - - -
1788018003 27.78° C 54% 1015.8 hPa 0 mm - - -
1788017403 27.22° C 57% 1016 hPa 0 mm - - -
1788016803 27.22° C 58% 1016 hPa 0 mm - - -
1788016203 26.67° C 58% 1016.3 hPa 0 mm - - -
1788015603 26.11° C 58% 1016.1 hPa 0 mm - - -
1788015003 25.56° C 60% 1016.4 hPa 0 mm - - -
1788014404 25.56° C 60% 1016.5 hPa 0 mm - - -
1788013804 24.44° C 61% 1016.6 hPa 0 mm - - -
1788013204 24.44° C 60% 1016.6 hPa 0 mm - - -
1788012603 24.44° C 62% 1016.8 hPa 0 mm - - -

* Rain latest hour (hover to see other rain measurements)
** Current wind speed in m/s (hover to see current wind gust speed)